Hourly Weather Kyyany

Today, 31 October, Saturday

Time Temperature Precipitation Wind Pressure Humidity
00:00 +9°C° 0.4 mm 3 mps 744 mmHg 87%
01:00 +9°C° 0.4 mm 3 mps 744 mmHg 88%
02:00 +9°C° 0.4 mm 3 mps 744 mmHg 89%
03:00 +9°C° 0.4 mm 3 mps 744 mmHg 90%
04:00 +9°C° 0.4 mm 3 mps 744 mmHg 90%
05:00 +8°C° 0.4 mm 3 mps 744 mmHg 91%
06:00 +9°C° 0.3 mm 3 mps 743 mmHg 91%
07:00 +9°C° 0.3 mm 3 mps 743 mmHg 91%
08:00 +9°C° 0.3 mm 3 mps 743 mmHg 91%
09:00 +9°C° 0.1 mm 3 mps 743 mmHg 91%
10:00 +9°C° 0.1 mm 3 mps 743 mmHg 90%
11:00 +10°C° 0.1 mm 3 mps 743 mmHg 89%
12:00 +10°C° 0.1 mm 3 mps 743 mmHg 89%
13:00 +10°C° 0.1 mm 3 mps 743 mmHg 88%
14:00 +11°C° 0.1 mm 3 mps 743 mmHg 87%
15:00 +10°C° 0.1 mm 3 mps 743 mmHg 88%
16:00 +10°C° 0.1 mm 3 mps 743 mmHg 89%
17:00 +10°C° 0.1 mm 3 mps 742 mmHg 90%
18:00 +10°C° 0.5 mm 4 mps 742 mmHg 91%
19:00 +10°C° 0.5 mm 4 mps 742 mmHg 92%
20:00 +10°C° 0.5 mm 4 mps 742 mmHg 92%
21:00 +9°C° 0.4 mm 5 mps 741 mmHg 91%
22:00 +9°C° 0.4 mm 6 mps 741 mmHg 91%
23:00 +9°C° 0.4 mm 7 mps 740 mmHg 90%

Tomorrow, 1 November, Sunday

Time Temperature Precipitation Wind Pressure Humidity
00:00 +10°C° 2.4 mm 7 mps 740 mmHg 91%
01:00 +10°C° 2.4 mm 7 mps 740 mmHg 92%
02:00 +10°C° 2.4 mm 7 mps 739 mmHg 93%
03:00 +10°C° 1 mm 6 mps 739 mmHg 93%
04:00 +10°C° 1 mm 6 mps 739 mmHg 93%
05:00 +12°C° 1 mm 5 mps 739 mmHg 93%
06:00 +10°C° 0.2 mm 6 mps 740 mmHg 92%
07:00 +10°C° 0.2 mm 6 mps 740 mmHg 90%
08:00 +10°C° 0.2 mm 6 mps 740 mmHg 89%
09:00 +10°C° 0 mm 6 mps 741 mmHg 84%
10:00 +10°C° 0 mm 6 mps 742 mmHg 80%
11:00 +10°C° 0 mm 6 mps 742 mmHg 76%
12:00 +11°C° 0 mm 6 mps 743 mmHg 73%
13:00 +12°C° 0 mm 5 mps 743 mmHg 70%
14:00 +12°C° 0 mm 4 mps 743 mmHg 67%
15:00 +12°C° 0 mm 4 mps 743 mmHg 71%
16:00 +11°C° 0 mm 4 mps 744 mmHg 75%
17:00 +11°C° 0 mm 4 mps 744 mmHg 79%
18:00 +11°C° 0 mm 4 mps 744 mmHg 80%
19:00 +11°C° 0 mm 4 mps 744 mmHg 82%
20:00 +10°C° 0 mm 5 mps 744 mmHg 83%
21:00 +9°C° 0 mm 5 mps 743 mmHg 84%
22:00 +9°C° 0 mm 5 mps 743 mmHg 84%
23:00 +9°C° 0 mm 5 mps 743 mmHg 85%

Day after tomorrow, 2 November, Monday

Time Temperature Precipitation Wind Pressure Humidity
00:00 +9°C° 1.4 mm 5 mps 743 mmHg 87%
01:00 +9°C° 1.4 mm 5 mps 743 mmHg 89%
02:00 +9°C° 1.4 mm 5 mps 743 mmHg 91%
03:00 +10°C° 0.9 mm 4 mps 743 mmHg 91%
04:00 +8°C° 0.9 mm 4 mps 743 mmHg 91%
05:00 +9°C° 0.9 mm 3 mps 743 mmHg 91%
06:00 +9°C° 0.1 mm 3 mps 743 mmHg 91%
07:00 +9°C° 0.1 mm 3 mps 744 mmHg 91%
08:00 +9°C° 0.1 mm 2 mps 744 mmHg 91%
09:00 +10°C° 0 mm 2 mps 744 mmHg 85%
10:00 +12°C° 0 mm 2 mps 744 mmHg 79%
11:00 +12°C° 0 mm 2 mps 744 mmHg 74%
12:00 +13°C° 0.1 mm 2 mps 745 mmHg 73%
13:00 +13°C° 0.1 mm 2 mps 745 mmHg 72%
14:00 +13°C° 0.1 mm 2 mps 745 mmHg 71%
15:00 +12°C° 0.1 mm 2 mps 745 mmHg 75%
16:00 +12°C° 0.1 mm 2 mps 745 mmHg 80%
17:00 +10°C° 0.1 mm 2 mps 745 mmHg 84%
18:00 +10°C° 0.2 mm 2 mps 745 mmHg 85%
19:00 +10°C° 0.2 mm 3 mps 745 mmHg 87%
20:00 +10°C° 0.2 mm 3 mps 745 mmHg 88%
21:00 +10°C° 0.2 mm 3 mps 745 mmHg 89%
22:00 +9°C° 0.2 mm 2 mps 745 mmHg 91%
23:00 +9°C° 0.2 mm 2 mps 745 mmHg 92%

3 November, Tuesday

Time Temperature Precipitation Wind Pressure Humidity
00:00 +9°C° 0.4 mm 2 mps 745 mmHg 92%
01:00 +9°C° 0.4 mm 2 mps 746 mmHg 93%
02:00 +9°C° 0.4 mm 2 mps 746 mmHg 93%
03:00 +9°C° 0.6 mm 2 mps 746 mmHg 94%
04:00 +9°C° 0.6 mm 2 mps 746 mmHg 94%
05:00 +9°C° 0.6 mm 3 mps 746 mmHg 95%
06:00 +9°C° 0.5 mm 3 mps 746 mmHg 94%
07:00 +9°C° 0.5 mm 3 mps 746 mmHg 94%
08:00 +9°C° 0.5 mm 3 mps 746 mmHg 94%
09:00 +9°C° 0.1 mm 3 mps 747 mmHg 92%
10:00 +10°C° 0.1 mm 3 mps 747 mmHg 90%
11:00 +10°C° 0.1 mm 2 mps 747 mmHg 89%
12:00 +10°C° 0.2 mm 2 mps 747 mmHg 87%
13:00 +12°C° 0.2 mm 2 mps 748 mmHg 85%
14:00 +12°C° 0.2 mm 2 mps 748 mmHg 84%
15:00 +10°C° 0.3 mm 2 mps 748 mmHg 86%
16:00 +10°C° 0.3 mm 2 mps 748 mmHg 88%
17:00 +10°C° 0.3 mm 3 mps 748 mmHg 90%
18:00 +10°C° 0.7 mm 2 mps 749 mmHg 91%
19:00 +9°C° 0.7 mm 2 mps 749 mmHg 92%
20:00 +9°C° 0.7 mm 2 mps 749 mmHg 93%
21:00 +9°C° 0.3 mm 2 mps 749 mmHg 93%
22:00 +10°C° 0.3 mm 1 mps 749 mmHg 94%
23:00 +10°C° 0.3 mm 1 mps 749 mmHg 94%

4 November, Wednesday

Time Temperature Precipitation Wind Pressure Humidity
00:00 +10°C° 0 mm 1 mps 750 mmHg 94%
01:00 +9°C° 0 mm 1 mps 750 mmHg 94%
02:00 +9°C° 0 mm 1 mps 750 mmHg 95%
03:00 +9°C° 0 mm 1 mps 750 mmHg 94%
04:00 +9°C° 0 mm 1 mps 750 mmHg 94%
05:00 +8°C° 0 mm 0 mps 750 mmHg 94%
06:00 +8°C° 0 mm 0 mps 751 mmHg 93%
07:00 +9°C° 0 mm 1 mps 751 mmHg 93%
08:00 +9°C° 0 mm 1 mps 751 mmHg 92%
09:00 +10°C° 0 mm 1 mps 752 mmHg 88%
10:00 +11°C° 0 mm 1 mps 752 mmHg 84%
11:00 +12°C° 0 mm 1 mps 752 mmHg 79%
12:00 +12°C° 0 mm 1 mps 752 mmHg 77%
13:00 +12°C° 0 mm 1 mps 752 mmHg 75%
14:00 +13°C° 0 mm 1 mps 752 mmHg 72%
15:00 +12°C° 0 mm 1 mps 752 mmHg 74%
16:00 +12°C° 0 mm 1 mps 752 mmHg 76%
17:00 +11°C° 0 mm 1 mps 752 mmHg 79%
18:00 +11°C° 0 mm 1 mps 753 mmHg 79%
19:00 +11°C° 0 mm 1 mps 753 mmHg 79%
20:00 +10°C° 0 mm 1 mps 753 mmHg 80%
21:00 +10°C° 0 mm 1 mps 754 mmHg 81%
22:00 +10°C° 0 mm 1 mps 754 mmHg 83%
23:00 +9°C° 0 mm 1 mps 754 mmHg 85%

5 November, Thursday

Time Temperature Precipitation Wind Pressure Humidity
00:00 +9°C° 0 mm 1 mps 754 mmHg 87%
01:00 +8°C° 0 mm 2 mps 754 mmHg 88%
02:00 +7°C° 0 mm 2 mps 754 mmHg 89%
03:00 +7°C° 0 mm 2 mps 754 mmHg 90%
04:00 +7°C° 0 mm 2 mps 754 mmHg 91%
05:00 +7°C° 0 mm 2 mps 754 mmHg 92%
06:00 +7°C° 0 mm 2 mps 754 mmHg 91%
07:00 +7°C° 0 mm 2 mps 754 mmHg 90%
08:00 +7°C° 0 mm 2 mps 755 mmHg 89%
09:00 +8°C° 0 mm 2 mps 755 mmHg 84%
10:00 +10°C° 0 mm 3 mps 754 mmHg 79%
11:00 +11°C° 0 mm 3 mps 754 mmHg 74%
12:00 +11°C° 0 mm 3 mps 754 mmHg 73%
13:00 +11°C° 0 mm 3 mps 754 mmHg 71%
14:00 +12°C° 0 mm 3 mps 754 mmHg 70%
15:00 +11°C° 0 mm 3 mps 754 mmHg 74%
16:00 +10°C° 0 mm 3 mps 754 mmHg 79%
17:00 +9°C° 0 mm 3 mps 754 mmHg 83%
18:00 +9°C° 0 mm 3 mps 754 mmHg 83%
19:00 +8°C° 0 mm 3 mps 754 mmHg 84%
20:00 +8°C° 0 mm 3 mps 754 mmHg 85%
21:00 +8°C° 0.1 mm 3 mps 754 mmHg 86%
22:00 +7°C° 0.1 mm 4 mps 754 mmHg 88%
23:00 +7°C° 0.1 mm 4 mps 754 mmHg 90%
Show more

We Need Your Consent

Meteoprog and our Service Providers may store and access personal data such as cookies, device identifiers or other similar technologies on your device and process such data to personalise content and ads, as well as provide social media features and to analyse the traffic.

  • Store and/or access information on your device

    Cookies, device identifiers or other information can be stored or accessed on your device for the purposes indicated above.

  • Personalised ads and content, ad and content measurement, audience insights, and products development

    Ads and content can be personalised based on a profile. More data can be added to better personalise ads and content. Ad and content performance can be measured. Insights about the audience who saw the ads and content can be derived. Such data can be used to develop or improve user’s experience, systems and software.

By clicking ‘I Agree’ you will allow the use of indicated cookies, device identifiers, web beacons or other similar technologies. Your settings can be changed in the browser on your device.

For certain purposes, legitimate interests may be relied on, rather than consent. You can read more about this in our Privacy and Cookie Policy.